[[{"header":{"parameterUnit":"m.s-1","parameterCategory":1,"la1":30.2992,"la2":30.254,"lo1":-89.0895,"lo2":-89.0443,"dy":0.0025,"dx":0.0025,"nx":19,"ny":19,"refTime":"2026-04-30T21:00:00:Z","depth":0,"parameterNumber":2,"parameterNumberName":"U-component_of_WINDS"},"data":[0,0,0,-6.1413,-6.1418,-6.1629,-6.1629,-6.1934,-6.1937,0,0,0,0,0,0,0,0,0,0,0,-6.137,-6.1372,-6.1412,-6.1418,-6.1629,-6.1629,-6.1933,-6.1937,0,0,0,0,0,0,0,0,0,0,0,-6.1368,-6.1372,-6.1375,-6.1419,-6.1628,-6.1629,-6.1932,-6.1762,0,0,0,0,0,0,0,0,0,0,-6.1551,-6.1529,-6.1371,-6.1375,-6.1421,-6.1628,-6.1629,-6.1753,-6.1772,-6.1852,0,-6.1927,0,-6.1936,-6.1959,-6.196,0,0,0,-6.1405,-6.1514,-6.1552,-6.1375,-6.1423,-6.1628,-6.153,-6.1763,-6.1785,-6.1879,-6.1931,-6.1941,-6.1942,-6.1961,-6.1963,-6.2464,-6.2467,0,0,-6.1393,-6.1419,-6.1537,-6.1568,-6.1535,-6.1523,-6.1537,-6.1776,-6.1836,-6.1932,-6.1948,-6.1947,-6.1963,-6.1966,-6.2461,-6.2465,0,0,0,-6.1369,-6.1411,-6.1443,-6.1556,-6.1591,-6.153,-6.1545,-6.1825,-6.1833,-6.1951,-6.195,-6.1965,-6.1969,-6.2458,-6.2462,-6.2634,0,0,0,-6.1361,-6.1397,-6.1439,-6.1457,-6.1587,-6.1711,-6.159,-6.1817,-6.1843,-6.1949,-6.1965,-6.1973,-6.2454,-6.246,-6.2622,-6.2712,0,0,0,-6.135,-6.1395,-6.1432,-6.1458,-6.1549,-6.1706,-6.1728,-6.1822,-6.1844,-6.196,-6.1974,-6.2452,-6.2459,-6.2611,-6.2695,-6.2852,0,0,0,-6.1345,-6.1583,-6.1435,-6.17,-6.1547,-6.1809,-6.1726,-6.192,-6.204,-6.1967,-6.2455,-6.2462,-6.2608,-6.2684,-6.2841,-6.2991,-6.3055,0,0,-6.1659,-6.1621,-6.1775,-6.1649,-6.1943,-6.1775,-6.2095,-6.2183,-6.2172,-6.2368,-6.2379,-6.2626,-6.2694,-6.285,-6.3401,-6.3452,0,0,0,-6.1883,-6.1995,-6.2067,-6.2181,-6.2251,-6.232,-6.2355,-6.2387,-6.2551,-6.2276,-6.2723,-6.2763,-6.2854,-6.2924,-6.2968,-6.3045,-6.2495,-6.2494,-6.2493,-6.2367,-6.2337,-6.259,-6.2586,-6.2698,-6.273,-6.2819,-6.2868,-6.2808,-6.2913,-6.2973,-6.331,-6.3394,-6.3426,-6.3507,-6.3047,-6.3048,-6.3048,-6.3049,-6.2827,-6.2981,-6.289,-6.3104,-6.3071,-6.3251,-6.3291,-6.3242,-6.3406,-6.3263,-6.3342,-6.3192,-6.3483,-6.3552,-6.3061,-6.3059,-6.3058,-6.3056,-6.3055,-6.3143,-6.3212,-6.3244,-6.3405,-6.3533,-6.352,-6.3681,-6.3645,-6.3614,-6.3691,-6.3751,-6.3748,-6.3743,-6.3721,-6.3722,-6.3723,-6.3724,-6.3725,-6.3726,-6.346,-6.3491,-6.363,-6.3722,-6.379,-6.3875,-6.3908,-6.3975,-6.404,-6.4002,-6.4003,-6.3933,-6.3515,-6.3413,-6.3744,-6.3741,-6.3739,-6.3737,-6.3736,-6.3944,-6.3828,-6.4042,-6.411,-6.4215,-6.4345,-6.4295,-6.4435,-6.4484,-6.4565,-6.4477,-6.4173,-6.4133,-6.4098,-6.4014,-6.4481,-6.4481,-6.4481,-6.4481,-6.4213,-6.4187,-6.4398,-6.4509,-6.4613,-6.4589,-6.4835,-6.4862,-6.4873,-6.4903,-6.4829,-6.4712,-6.4678,-6.4658,-6.4612,-6.4532,-6.5121,-6.5121,-6.5122,-6.451,-6.4492,-6.4707,-6.4712,-6.4791,-6.4861,-6.5091,-6.5224,-6.5211,-6.5147,-6.4925,-6.4898,-6.4709,-6.4648,-6.4584,-6.4512,-6.4365,0,0]},{"header":{"parameterUnit":"m.s-1","parameterCategory":1,"la1":30.2992,"la2":30.254,"lo1":-89.0895,"lo2":-89.0443,"dy":0.0025,"dx":0.0025,"nx":19,"ny":19,"refTime":"2026-04-30T21:00:00:Z","depth":0,"parameterNumber":3,"parameterNumberName":"V-component_of_WINDS"},"data":[0,0,0,-6.3207,-6.321,-6.3323,-6.3323,-6.348,-6.3481,0,0,0,0,0,0,0,0,0,0,0,-6.3183,-6.3185,-6.3207,-6.321,-6.3323,-6.3323,-6.3479,-6.3481,0,0,0,0,0,0,0,0,0,0,0,-6.3182,-6.3184,-6.3186,-6.321,-6.3323,-6.3324,-6.3479,-6.3389,0,0,0,0,0,0,0,0,0,0,-6.3277,-6.3265,-6.3184,-6.3186,-6.3211,-6.3323,-6.3324,-6.3384,-6.3395,-6.3434,0,-6.3474,0,-6.348,-6.3492,-6.3493,0,0,0,-6.3203,-6.3257,-6.3278,-6.3186,-6.3212,-6.3323,-6.327,-6.339,-6.3401,-6.3447,-6.3476,-6.3481,-6.3482,-6.3494,-6.3494,-6.3748,-6.375,0,0,-6.3196,-6.3209,-6.327,-6.3286,-6.3272,-6.3266,-6.3274,-6.3397,-6.3428,-6.3476,-6.3484,-6.3485,-6.3495,-6.3496,-6.3747,-6.3749,0,0,0,-6.3183,-6.3205,-6.3223,-6.328,-6.33,-6.327,-6.3278,-6.3422,-6.3427,-6.3486,-6.3487,-6.3496,-6.3498,-6.3745,-6.3747,-6.3834,0,0,0,-6.3179,-6.3197,-6.3221,-6.3229,-6.3298,-6.3363,-6.3301,-6.3419,-6.3432,-6.3486,-6.3496,-6.3499,-6.3743,-6.3746,-6.3828,-6.3874,0,0,0,-6.3172,-6.3196,-6.3216,-6.323,-6.3279,-6.3361,-6.3373,-6.3421,-6.3433,-6.3493,-6.35,-6.3742,-6.3746,-6.3823,-6.3865,-6.3942,0,0,0,-6.3169,-6.3293,-6.3217,-6.3356,-6.3278,-6.3414,-6.3372,-6.3473,-6.3535,-6.3497,-6.3744,-6.3747,-6.3821,-6.3859,-6.3937,-6.4009,-6.4041,0,0,-6.3332,-6.3313,-6.3394,-6.3329,-6.3482,-6.3396,-6.3561,-6.3606,-6.36,-6.3698,-6.3704,-6.383,-6.3864,-6.3941,-6.4216,-6.4242,0,0,0,-6.3449,-6.3507,-6.3545,-6.3605,-6.3642,-6.3676,-6.3694,-6.371,-6.3793,-6.3654,-6.3879,-6.3899,-6.3944,-6.3978,-6.3999,-6.4035,-6.3764,-6.3763,-6.3763,-6.37,-6.3684,-6.3815,-6.3813,-6.387,-6.3886,-6.393,-6.3954,-6.3923,-6.3976,-6.4006,-6.4174,-6.4215,-6.4231,-6.4269,-6.4043,-6.4044,-6.4044,-6.4044,-6.3937,-6.4016,-6.3968,-6.4078,-6.406,-6.4151,-6.4169,-6.4143,-6.4224,-6.4152,-6.4191,-6.4113,-6.4259,-6.4291,-6.4051,-6.4049,-6.4049,-6.4048,-6.4048,-6.4099,-6.4134,-6.415,-6.4231,-6.4295,-6.4286,-6.4365,-6.4346,-6.4328,-6.4366,-6.4393,-6.4392,-6.4386,-6.438,-6.4381,-6.4382,-6.4382,-6.4382,-6.4383,-6.426,-6.4276,-6.4345,-6.4391,-6.4424,-6.4465,-6.4479,-6.451,-6.454,-6.452,-6.452,-6.4481,-6.4277,-6.4225,-6.4392,-6.439,-6.4389,-6.4388,-6.4388,-6.4506,-6.4446,-6.4554,-6.4587,-6.4636,-6.4699,-6.4672,-6.4736,-6.4759,-6.4798,-6.475,-6.4603,-6.4582,-6.4564,-6.4521,-6.4755,-6.4755,-6.4755,-6.4755,-6.4642,-6.4629,-6.4731,-6.4784,-6.4834,-6.4819,-6.4937,-6.4946,-6.4947,-6.4959,-6.4923,-6.4864,-6.4847,-6.4836,-6.4813,-6.4772,-6.5064,-6.5065,-6.5065,-6.4791,-6.4781,-6.4887,-6.4886,-6.4922,-6.4953,-6.5062,-6.5122,-6.511,-6.5077,-6.4968,-6.4955,-6.486,-6.483,-6.4796,-6.476,-6.4685,0,0]}]]